Regional Weather Roundup
Issued by NWS Northern Indiana

Home | Current Version | Previous Version | Graphics & Text | Print | Product List | Glossary On
Versions: 1 2 3 4 5 6 7 8 9 10 11 12 13 14 15 16 17 18 19 20 21 22 23 24 25 26 27 28 29 30 31 32 33 34 35 36 37 38 39 40 41 42 43 44 45 46 47 48 49 50
000
ASUS43 KIWX 170800
RWRIWX

KIWX WEATHER ROUNDUP
NATIONAL WEATHER SERVICE NORTHERN INDIANA
400 AM EDT TUE OCT 17 2017

NOTE: "FAIR" INDICATES FEW OR NO CLOUDS BELOW 12,000 FEET WITH NO
SIGNIFICANT WEATHER AND/OR OBSTRUCTIONS TO VISIBILITY.

* THESE STATIONS ARE NOT UNDER NWS QUALITY CONTROL. THEY ALSO MAY NOT
  REPORT WEATHER SUCH AS PRECIPITATION OR FOG.

INZ001>027-170900-
NORTHERN INDIANA

CITY           SKY/WX    TMP DP  RH WIND       PRES   REMARKS
MICHIGAN CITY* CLEAR     46  37  71 S7        30.24S
SOUTH BEND     CLEAR     43  39  86 SW9       30.24S
GOSHEN         CLEAR     44  37  76 SW8       30.24F
MONTICELLO*    CLEAR     43  37  79 S6        30.27S
FORT WAYNE     PTCLDY    40  36  86 SW7       30.27S

$$
INZ028>050-170900-
CENTRAL INDIANA

CITY           SKY/WX    TMP DP  RH WIND       PRES   REMARKS
LAFAYETTE      CLEAR     43  39  86 CALM      30.28S
KOKOMO*        CLEAR     45  38  76 SW7       30.29S
MUNCIE*        CLEAR     46  37  71 S5        30.29S
INDIANAPOLIS   CLEAR     44  38  79 SW5       30.30S

$$
MIZ043>046-050>051-056>058-064>065-071>073-077>080-170900-
SOUTHWEST LOWER MICHIGAN

CITY           SKY/WX    TMP DP  RH WIND       PRES   REMARKS
BATTLE CREEK   CLEAR     43  39  86 SW7       30.22S
BENTON HARBOR  CLEAR     45  38  76 S5        30.22R
COLDWATER*     CLEAR     45  38  77 SW6       30.23F
HILLSDALE*     CLEAR     43  36  75 SW6       30.23S
HOLLAND        CLEAR     50  45  83 SW10      30.19S
GRAND RAPIDS   CLEAR     47  41  80 SW9       30.18S
STURGIS*       CLEAR     42  37  84 SW3       30.23S
THREE RIVERS*  FAIR      43  39  87 SW5       30.24S

$$
OHZ001>008-015>018-024>025-170900-
NORTHWEST OHIO

CITY           SKY/WX    TMP DP  RH WIND       PRES   REMARKS
DEFIANCE       CLEAR     42  36  79 SW3       30.27S
FINDLAY        CLEAR     41  36  82 S7        30.27F
TOLEDO EXPRESS CLEAR     43  41  93 S6        30.25F
TOLEDO METCALF CLEAR     44  39  82 S7        30.27S
LIMA           CLEAR     42  38  85 S7        30.28F

$$
AND FOR LAKE MICHIGAN COASTAL AND OPEN LAKE BUOY OBSERVATIONS

STATION/POSITION TEMP    WIND        PRES    VSBY  WAVE
                 AIR SEA DIR/SP/G                  HT/PER
                 (F)     (DEG/KT/KT) (MB)    (MI)  (FT/S)
CALUMET HARBOR    52     200/  6/  9 1022.4R
MICHIGAN CITY     52     180/ 14/ 16   N/A
BURNS HARBOR      51     190/ 12/ 15 1023.7S
SAINT JOSEPH      52     190/  7/ 13 1023.7
SOUTH LAKE BUOY   60 62  240/ 17/ 21 1021.7          3/ 5
4 MI NW BRIDGMAN  55 56  220/ 14/ 16 1023.8R         2/ 3
MICHIGAN CITY     54 57  210/ 14/ 17   N/A           2/ 3

$$
&&



USA.gov is the U.S. government's official web portal to all federal, state and local government web resources and services.